Probability
0 0 3 3 3 3 3 0 0 0 0 0 0 0 0 0 0 0 0 0 0 0 0 0 0 0 0 0 0 0 0 0 0 0 0 0 0 0 0 0 0 0 0
0 0 0 3 3 3 0 0 0 0 0 0 0 0 0 0 0 0 0 0 0 0 0 0 0 0 0 0 0 0 0 0 0 0 0 0 0 0 0 0 0 0 0
0 0 0 0 0 0 3 0 0 0 0 0 0 0 0 0 0 0 0 0 0 0 0 0 0 0 0 0 0 0 0 0 0 0 0 0 0 0 0 0 0 0 0
0 0 0 0 0 0 0 0 0 0 0 0 0 0 0 0 0 0 0 0 0 0 0 0 0 0 0 0 0 0 0 0 0 0 0 0 0 0 0 0 0 0 0
0 0 0 0 0 0 0 0 0 0 0 0 0 0 0 0 0 0 0 0 0 0 0 0 0 0 0 0 0 0 0 0 0 0 0 0 0 0 0 0 0 0 0
0 0 0 0 0 0 0 0 0 0 0 0 0 0 0 0 0 0 0 0 0 0 0 0 0 0 0 0 0 0 0 0 0 0 0 0 0 0 0 0 0 0 0
0 0 0 0 0 0 0 0 0 0 0 0 0 0 0 0 0 0 0 0 0 0 0 0 0 0 0 0 0 0 0 0 0 0 0 0 0 0 0 0 0 0 0
0 0 0 0 0 0 0 0 0 0 0 0 0 0 0 0 0 0 0 0 0 0 0 0 0 0 0 0 0 0 0 0 0 0 0 0 0 0 0 0 0 0 0
0 0 0 0 0 0 0 0 0 0 0 0 0 0 0 0 0 0 0 0 0 0 0 0 0 0 0 0 0 0 0 0 0 0 0 0 0 0 0 0 0 0 0
0 0 0 0 0 0 0 0 0 0 0 0 0 0 0 0 0 0 0 0 0 0 0 0 0 0 0 0 0 0 0 0 0 0 0 0 0 0 0 0 0 0 0
0 0 0 0 0 0 0 0 0 0 0 0 0 0 0 0 0 0 0 0 0 0 0 0 0 0 0 0 0 0 0 0 0 0 0 0 0 0 0 0 0 0 0
0 0 0 0 0 0 0 0 0 0 0 0 0 0 0 0 0 0 0 0 0 0 0 0 0 0 0 0 0 0 0 0 0 0 0 0 0 0 0 0 0 0 0
0 0 0 0 0 0 0 0 0 0 0 0 0 0 0 0 0 0 0 0 0 0 0 0 0 0 0 0 0 0 0 0 0 0 0 0 0 0 0 0 0 0 0
0 0 0 0 0 0 0 0 0 0 0 0 0 0 0 0 0 0 0 0 0 0 0 0 0 0 0 0 0 0 0 0 0 0 0 0 0 0 0 0 0 0 0
0 0 0 0 0 0 0 0 0 0 0 0 0 0 0 0 0 0 0 0 0 0 0 0 0 0 0 0 0 0 0 0 0 0 0 0 0 0 0 0 0 0 0
0 0 0 0 0 0 0 0 0 0 0 0 0 0 0 0 0 0 0 0 0 0 0 0 0 0 0 0 0 0 0 0 0 0 0 0 0 0 0 0 0 0 0
0 0 0 0 0 0 0 0 0 0 0 0 0 0 0 0 0 0 0 0 0 0 0 0 0 0 0 0 0 0 0 0 0 0 0 0 0 0 0 0 0 0 0
0 0 0 0 0 0 0 0 0 0 0 0 0 0 0 0 0 0 0 0 0 0 0 0 0 0 0 0 0 0 0 0 0 0 0 0 0 0 0 0 0 0 0
0 0 0 0 0 0 0 0 0 0 0 0 0 0 0 0 0 0 0 0 0 0 0 0 0 0 0 0 0 0 0 0 0 0 0 0 0 0 0 0 0 0 0
0 0 0 0 0 0 0 0 0 0 0 0 0 0 0 0 0 0 0 0 0 0 0 0 0 0 0 0 0 0 0 0 0 0 0 0 0 0 0 0 0 0 0
0 0 0 0 0 0 0 0 0 0 0 0 0 0 0 0 0 0 0 0 0 0 0 0 0 0 0 0 0 0 0 0 0 0 0 0 0 0 0 0 0 0 0
0 0 0 0 0 0 0 0 0 0 0 0 0 0 0 0 0 0 0 0 0 0 0 0 0 0 0 0 0 0 0 0 0 0 0 0 0 0 0 0 0 0 0
0 0 0 0 0 0 0 0 0 0 0 0 0 0 0 0 0 0 0 0 0 0 0 0 0 0 0 0 0 0 0 0 0 0 0 0 0 0 0 0 0 0 0
0 0 0 0 0 0 0 0 0 0 0 0 0 0 0 0 0 0 0 0 0 0 0 0 0 0 0 0 0 0 0 0 0 0 0 0 0 0 0 0 0 0 0
0 0 0 0 0 0 0 0 0 0 0 0 0 0 0 0 0 0 0 0 0 0 0 0 0 0 0 0 0 0 0 0 0 0 0 0 0 0 0 0 0 0 0
0 0 0 0 0 0 0 0 0 0 0 0 0 0 0 0 0 0 0 0 0 0 0 0 0 0 0 0 0 0 0 0 0 0 0 0 0 0 0 0 0 0 0
Height
5676 5678 5681 5685 5688 5691 5693 5695 5698 5701 5704 5707 5709 5712 5714 5716 5717 5719 5721 5722 5724 5725 5726 5727 5728 5729 5730 5730 5731 5731 5732 5733 5734 5735 5735 5736 5737 5739 5740 5741 5742 5743 5745
5667 5670 5673 5676 5679 5681 5684 5686 5689 5692 5695 5698 5700 5703 5705 5707 5709 5711 5712 5714 5715 5717 5719 5720 5721 5721 5722 5722 5722 5723 5723 5724 5725 5726 5727 5728 5730 5730 5731 5732 5733 5734 5735
5659 5661 5664 5667 5669 5672 5675 5678 5680 5683 5686 5689 5691 5694 5696 5698 5701 5702 5704 5705 5707 5709 5710 5711 5712 5713 5713 5714 5714 5714 5715 5715 5716 5717 5718 5719 5720 5722 5723 5723 5723 5724 5725
5650 5652 5655 5657 5661 5664 5666 5669 5671 5674 5677 5679 5682 5684 5687 5690 5692 5694 5695 5697 5699 5700 5701 5702 5704 5704 5705 5706 5705 5706 5706 5707 5707 5708 5709 5710 5710 5712 5713 5713 5713 5714 5714
5642 5644 5646 5649 5651 5654 5657 5660 5662 5665 5668 5670 5672 5675 5678 5681 5683 5685 5687 5688 5690 5691 5692 5694 5695 5696 5696 5696 5696 5697 5697 5698 5698 5699 5699 5699 5700 5701 5702 5703 5703 5703 5703
5633 5635 5637 5640 5642 5645 5648 5650 5653 5656 5658 5661 5663 5666 5669 5671 5674 5676 5678 5679 5681 5682 5683 5684 5685 5686 5687 5687 5687 5688 5688 5688 5689 5689 5689 5689 5690 5690 5691 5692 5692 5692 5692
5624 5626 5628 5630 5633 5635 5638 5641 5643 5646 5648 5651 5653 5656 5659 5662 5664 5666 5668 5670 5671 5672 5673 5674 5675 5676 5677 5677 5677 5678 5678 5678 5678 5679 5679 5679 5679 5679 5679 5680 5680 5681 5680
5615 5617 5619 5621 5623 5626 5628 5631 5634 5636 5638 5641 5644 5646 5649 5651 5654 5656 5658 5659 5661 5662 5663 5664 5665 5666 5666 5667 5667 5667 5668 5668 5668 5668 5668 5668 5667 5667 5667 5668 5668 5669 5669
5606 5608 5610 5612 5614 5617 5619 5621 5624 5626 5628 5631 5634 5636 5638 5641 5643 5645 5647 5649 5650 5651 5652 5653 5654 5655 5655 5656 5656 5656 5656 5657 5656 5656 5656 5656 5656 5655 5655 5655 5655 5656 5656
5597 5599 5601 5603 5605 5607 5609 5612 5613 5616 5618 5621 5623 5626 5628 5630 5632 5634 5636 5637 5639 5640 5641 5642 5643 5644 5645 5645 5645 5645 5645 5645 5645 5645 5645 5644 5644 5643 5643 5642 5642 5642 5643
5588 5590 5592 5594 5596 5598 5600 5602 5604 5606 5608 5610 5613 5615 5617 5619 5620 5622 5624 5626 5627 5629 5630 5631 5632 5633 5633 5633 5634 5634 5633 5633 5633 5633 5633 5632 5632 5631 5630 5630 5629 5629 5629
5580 5581 5583 5585 5587 5588 5590 5592 5594 5596 5598 5600 5602 5604 5606 5607 5609 5611 5612 5613 5615 5616 5618 5619 5620 5620 5621 5621 5622 5622 5621 5621 5621 5621 5620 5620 5619 5618 5618 5617 5616 5616 5616
5571 5573 5574 5576 5577 5579 5580 5582 5584 5585 5587 5589 5591 5593 5594 5596 5598 5599 5600 5601 5603 5604 5605 5606 5607 5608 5608 5609 5609 5609 5609 5609 5608 5608 5608 5607 5606 5606 5605 5604 5603 5603 5603
5563 5564 5565 5567 5568 5569 5571 5572 5574 5575 5577 5578 5579 5581 5583 5584 5586 5587 5588 5589 5590 5591 5592 5593 5594 5595 5595 5595 5596 5596 5596 5596 5595 5595 5594 5594 5593 5592 5591 5591 5590 5590 5590
5554 5555 5556 5557 5558 5560 5561 5562 5564 5565 5566 5567 5568 5569 5571 5572 5573 5574 5576 5577 5577 5578 5579 5580 5581 5581 5582 5582 5582 5582 5582 5582 5582 5581 5581 5580 5579 5578 5578 5577 5577 5577 5577
5545 5546 5546 5547 5549 5550 5551 5552 5553 5554 5555 5556 5557 5558 5559 5560 5560 5562 5563 5564 5565 5565 5566 5567 5567 5568 5568 5568 5568 5569 5568 5568 5568 5568 5567 5566 5565 5564 5564 5564 5564 5564 5564
5536 5536 5537 5538 5538 5539 5540 5541 5542 5543 5544 5545 5546 5546 5547 5548 5548 5549 5550 5551 5552 5553 5553 5554 5554 5554 5554 5555 5555 5554 5554 5554 5554 5553 5553 5552 5551 5550 5550 5550 5550 5550 5550
5527 5527 5527 5528 5528 5529 5530 5530 5531 5532 5532 5533 5534 5534 5535 5535 5536 5537 5537 5538 5539 5539 5540 5540 5541 5541 5541 5541 5541 5541 5541 5540 5540 5539 5539 5538 5537 5537 5536 5537 5537 5536 5536
5517 5517 5518 5518 5518 5519 5519 5519 5520 5520 5521 5521 5522 5522 5522 5523 5523 5524 5524 5525 5525 5526 5526 5526 5527 5527 5527 5527 5526 5526 5526 5526 5526 5525 5524 5524 5524 5523 5523 5523 5523 5523 5522
5508 5508 5508 5508 5508 5508 5508 5508 5509 5509 5509 5509 5510 5510 5510 5510 5510 5510 5511 5511 5512 5512 5512 5512 5513 5512 5512 5512 5512 5511 5512 5512 5511 5510 5510 5510 5509 5509 5508 5509 5509 5509 5508
5498 5498 5498 5498 5497 5497 5497 5497 5497 5497 5497 5497 5498 5498 5497 5497 5497 5497 5498 5498 5498 5498 5498 5499 5499 5498 5498 5497 5497 5497 5497 5496 5496 5496 5496 5495 5495 5495 5494 5495 5495 5495 5494
5489 5489 5488 5488 5487 5487 5487 5487 5486 5486 5486 5485 5485 5485 5485 5485 5484 5484 5484 5484 5484 5484 5484 5484 5484 5483 5483 5482 5482 5482 5482 5482 5482 5481 5481 5481 5481 5481 5481 5480 5480 5480 5480
5480 5479 5479 5478 5477 5477 5476 5476 5475 5474 5474 5473 5473 5473 5472 5472 5471 5471 5471 5470 5470 5470 5470 5470 5470 5469 5469 5468 5468 5467 5467 5467 5467 5467 5467 5467 5467 5467 5466 5466 5466 5465 5465
5471 5470 5469 5468 5467 5466 5466 5465 5464 5463 5463 5462 5461 5460 5460 5459 5458 5458 5457 5457 5456 5456 5456 5455 5455 5455 5455 5454 5454 5453 5453 5453 5453 5453 5453 5453 5453 5453 5452 5452 5451 5451 5451
5461 5460 5459 5458 5457 5456 5455 5454 5453 5452 5451 5450 5449 5448 5447 5446 5445 5444 5444 5443 5443 5442 5442 5442 5442 5441 5441 5441 5440 5440 5440 5440 5440 5439 5439 5439 5439 5439 5438 5438 5437 5437 5436
5451 5450 5449 5448 5447 5446 5445 5444 5442 5441 5440 5439 5437 5436 5434 5433 5433 5432 5431 5430 5430 5429 5429 5428 5428 5428 5428 5427 5427 5427 5427 5426 5426 5426 5426 5426 5425 5425 5424 5424 5423 5422 5421
Wind_Speed
35 36 37 37 37 36 36 37 37 37 37 36 36 35 35 34 34 34 34 33 32 31 31 31 30 30 30 31 31 31 31 31 31 31 32 33 33 33 34 34 35 36 36
35 36 37 38 38 37 37 37 37 38 38 37 36 37 36 35 35 34 34 34 33 33 33 33 32 32 31 32 32 33 32 32 33 33 33 33 34 34 34 35 35 36 36
36 36 37 38 39 38 38 38 39 38 38 38 37 37 37 36 36 35 35 35 34 34 34 34 33 33 32 33 34 34 33 33 33 33 33 34 35 36 36 36 37 37 38
37 37 37 38 39 38 39 39 40 39 39 39 38 38 37 37 37 37 36 36 36 36 35 34 34 34 34 34 35 35 35 35 35 35 35 36 37 38 38 38 38 39 40
36 36 37 37 38 38 38 38 39 39 40 40 40 38 38 38 38 37 37 36 37 37 37 36 36 35 35 35 36 36 37 37 37 37 37 38 38 39 39 40 41 42 42
35 36 36 37 38 39 40 39 39 40 40 40 40 39 39 39 38 38 38 38 38 38 38 38 37 36 37 37 37 37 38 38 39 39 39 39 39 40 41 41 42 43 44
35 35 36 36 37 39 40 40 40 40 41 41 41 41 40 40 40 39 39 39 39 40 39 39 39 39 39 39 39 39 38 39 39 40 40 41 41 42 42 43 43 44 45
33 34 35 36 37 37 39 40 40 41 41 41 42 42 42 41 41 41 40 40 41 41 41 41 40 40 40 41 41 41 41 41 41 41 42 42 42 42 43 44 44 45 46
32 33 34 35 36 36 37 39 40 41 42 42 42 42 42 42 42 43 43 42 42 42 42 42 42 42 41 41 41 42 42 42 42 42 43 43 43 44 45 46 46 46 46
32 32 33 34 35 35 36 37 38 40 41 42 43 43 43 44 44 44 44 44 44 44 44 45 44 44 44 43 42 42 42 43 43 44 44 44 45 45 46 47 47 48 47
32 32 33 33 35 36 36 36 37 39 41 42 42 43 44 44 44 44 44 45 45 46 47 48 47 46 46 46 46 45 45 45 45 46 46 46 46 47 46 47 47 47 47
31 31 32 33 34 35 35 36 37 38 40 41 42 43 44 44 45 45 46 46 47 48 48 49 49 48 48 48 48 47 47 47 47 47 48 48 48 49 48 48 48 48 48
31 32 32 33 34 35 35 36 37 38 40 41 42 43 45 45 45 45 46 47 47 48 48 49 49 50 49 49 49 49 49 49 49 49 49 50 50 49 49 48 49 49 49
32 32 33 33 34 35 35 36 37 38 39 41 42 43 44 45 45 45 45 46 47 48 48 48 49 49 50 51 51 50 50 50 50 50 50 50 50 50 49 49 49 49 49
31 32 34 35 35 36 36 37 37 38 39 40 41 42 44 44 45 45 45 46 46 47 47 48 48 48 49 51 51 51 51 51 51 51 51 50 50 50 50 49 48 48 49
32 32 33 34 35 36 37 37 38 39 39 40 41 42 43 44 45 45 45 46 46 46 46 47 48 49 49 50 50 50 50 50 50 50 49 49 49 49 49 49 49 48 48
33 33 34 35 36 36 36 37 38 39 40 40 41 42 42 43 44 45 45 46 46 46 46 47 47 48 49 50 50 50 50 49 48 48 48 48 49 49 49 49 49 49 49
32 33 34 34 35 36 36 37 38 39 40 41 42 42 43 44 44 45 46 46 46 47 47 47 47 48 48 49 49 49 50 49 49 48 48 49 49 49 49 49 49 50 50
31 32 33 34 35 35 36 37 38 39 40 40 41 43 44 44 45 45 46 47 47 47 48 48 49 49 49 49 49 49 49 49 49 49 49 49 49 49 49 49 50 50 50
31 32 33 34 35 36 36 37 38 39 40 41 41 42 43 44 44 45 46 46 47 47 48 48 49 49 49 50 50 49 50 49 50 49 49 49 49 49 49 49 50 50 51
31 32 33 34 34 35 36 37 37 39 40 41 42 42 43 43 44 44 45 46 47 47 48 48 49 49 50 50 50 50 50 50 49 49 48 48 49 49 49 49 50 50 51
31 32 33 34 34 34 35 36 37 38 39 40 41 41 42 43 43 44 45 45 46 47 47 47 47 48 48 49 49 50 50 49 49 48 48 48 48 48 49 49 49 50 50
32 32 33 34 34 35 35 35 36 37 38 39 39 40 41 42 43 44 44 45 45 45 46 46 47 47 47 47 47 47 47 47 48 48 47 47 47 48 48 49 50 50 50
33 33 33 33 34 34 35 35 35 36 36 37 39 39 40 41 42 43 43 44 44 44 45 45 45 45 45 45 46 45 45 46 45 46 46 46 47 47 47 48 49 49 50
34 34 33 33 33 34 34 34 35 36 36 37 38 39 39 40 40 41 41 41 42 42 42 42 43 43 43 44 44 44 44 44 44 44 45 45 45 45 46 46 47 47 48
34 33 33 32 32 33 33 34 35 35 36 37 38 38 38 38 38 39 39 39 40 40 41 41 41 41 41 42 42 43 43 43 43 43 44 44 45 45 46 46 46 47 47
Wind_Direction
249 246 245 246 246 247 246 245 245 246 247 248 249 250 250 252 253 254 255 255 256 256 257 259 261 262 262 263 263 263 263 262 262 262 263 263 262 263 264 263 262 262 263
250 249 246 245 246 247 246 244 245 245 246 248 249 250 250 250 253 254 254 254 254 255 256 258 261 263 263 263 264 264 262 263 263 264 265 264 262 263 265 264 264 264 264
250 250 248 246 246 247 248 248 247 247 247 247 249 250 250 250 252 253 255 256 256 256 258 259 261 264 265 265 264 263 262 264 264 264 266 265 264 263 265 265 265 265 265
251 250 248 246 246 247 248 249 248 249 248 249 249 250 250 250 251 253 255 256 256 256 257 259 261 263 265 264 263 262 263 264 265 265 265 266 266 265 265 265 265 266 266
252 250 249 248 247 246 248 249 249 249 250 250 250 249 249 249 251 253 254 255 256 256 257 258 260 262 264 264 264 263 264 266 266 267 267 267 267 266 265 265 266 267 268
252 252 251 250 249 247 248 249 250 251 251 250 250 249 249 250 251 253 253 255 256 256 257 257 259 263 265 265 265 265 266 267 268 268 269 269 268 267 267 266 267 268 269
253 253 252 251 250 249 249 249 250 251 251 251 250 249 249 250 252 253 254 255 256 256 257 257 259 262 264 265 266 266 267 268 269 269 270 270 270 269 268 267 268 269 270
253 253 253 251 250 250 250 250 250 251 252 251 251 251 250 250 252 254 254 256 256 256 257 258 259 262 263 265 266 267 267 268 269 270 271 271 271 271 269 268 269 270 271
253 253 253 253 252 251 252 252 252 252 252 252 252 253 252 253 254 254 255 256 257 257 258 259 260 261 264 265 265 267 268 269 269 270 271 270 271 272 271 270 270 271 271
254 254 253 253 252 253 253 254 253 253 253 253 253 254 254 254 255 256 256 256 257 258 257 259 261 262 263 265 266 267 268 269 270 270 271 271 271 272 273 272 271 271 272
255 254 254 254 253 254 254 254 253 253 253 253 253 254 255 256 256 257 257 257 257 259 259 259 260 261 262 265 266 267 268 269 271 271 271 272 273 273 273 273 272 272 272
256 255 255 255 254 255 255 254 254 254 254 254 254 255 255 256 256 257 257 257 258 259 260 260 260 262 263 265 266 268 268 270 270 271 272 272 273 274 273 273 273 272 272
257 256 256 256 256 256 256 255 256 256 256 255 255 256 256 257 257 258 258 258 258 260 261 261 261 262 263 264 266 267 268 269 270 271 272 273 273 274 274 274 273 273 272
260 259 259 258 258 258 257 256 256 257 257 257 257 257 258 258 258 258 258 259 259 260 262 262 263 263 264 265 267 268 268 269 270 271 272 272 273 273 274 274 273 273 272
263 262 262 260 260 260 259 259 258 257 257 258 258 258 258 258 260 260 260 261 261 260 261 262 263 264 265 265 267 267 268 269 270 271 272 272 272 272 273 273 273 273 272
264 264 264 263 262 261 260 259 259 259 259 259 260 260 260 260 261 261 260 261 261 261 262 262 263 264 264 265 267 268 269 270 270 270 271 271 271 272 272 273 273 273 272
266 265 266 265 264 263 262 262 261 260 259 260 261 261 261 262 262 261 261 261 261 262 262 262 263 264 265 266 267 268 269 270 270 270 270 270 271 271 271 272 272 272 272
269 268 268 267 266 264 264 264 263 262 262 262 263 263 263 263 263 263 262 262 262 263 263 263 263 264 266 266 267 268 269 270 271 271 270 271 271 271 271 270 271 272 272
271 270 270 270 268 266 265 265 265 263 263 263 263 264 264 264 264 265 265 264 264 264 264 265 265 265 265 267 268 269 270 270 271 271 271 271 271 271 271 271 271 272 272
271 270 270 271 270 269 267 267 266 265 264 264 264 265 266 266 266 265 265 265 266 266 266 266 266 267 267 267 268 269 269 270 271 271 271 271 270 270 271 271 271 271 272
272 271 270 271 271 270 269 269 268 267 267 267 266 266 266 267 267 267 266 267 267 267 267 267 268 268 268 269 269 269 269 270 270 270 270 270 270 270 271 272 272 272 273
272 272 272 273 272 271 270 270 270 270 269 269 268 267 267 267 268 267 267 267 268 268 268 268 269 269 270 270 270 270 270 270 270 270 271 270 270 271 272 272 273 273 274
274 274 274 274 272 272 271 271 271 271 270 269 269 269 268 268 269 268 268 268 268 268 269 269 269 269 270 270 270 270 270 270 270 271 270 270 270 271 272 272 273 273 274
275 275 275 274 273 272 272 272 271 271 272 271 271 271 271 271 270 269 269 268 268 269 270 270 270 270 270 270 270 271 271 271 271 271 271 271 272 272 273 273 273 274 274
277 276 276 275 274 273 273 273 273 273 273 273 273 273 273 273 272 271 270 270 270 270 271 271 271 270 270 270 270 271 271 272 272 271 271 272 272 272 273 274 274 275 275
278 277 277 276 276 275 275 274 274 274 275 274 275 275 275 274 273 272 271 271 271 271 271 271 272 271 271 270 270 271 271 271 271 271 272 272 273 273 274 275 275 275 276